DAL1326 KMSN-KDTW

Flight info

Callsign DAL1326
Flight time 0h 56m
Altitude 33000
Route BAE PORZL KKISS2
Aircraft A320/M-SDE3FGHIRWY/LB1

Departure

Time 2026-04-26 19:09
Airport Dane County Regional Truax Field (KMSN)

Arrival

Time 2026-04-26 20:05
Airport Detroit Metropolitan Wayne County Airport (KDTW)
Time Latitude Longitude Altitude Speed Heading
2026-04-26 18:48 43.13567 -89.34499 867 ft 0 kts 271°
2026-04-26 19:00 43.13567 -89.34472 867 ft 4 kts 275°
2026-04-26 19:01 43.13563 -89.34436 867 ft 4 kts 287°
2026-04-26 19:01 43.13552 -89.34405 866 ft 4 kts 324°
2026-04-26 19:01 43.13537 -89.34398 866 ft 1 kts 18°
2026-04-26 19:01 43.13534 -89.34399 866 ft 0 kts 18°
2026-04-26 19:05 43.13570 -89.34387 846 ft 16 kts
2026-04-26 19:05 43.13675 -89.34366 854 ft 12 kts 39°
2026-04-26 19:05 43.13737 -89.34314 854 ft 9 kts
2026-04-26 19:06 43.13799 -89.34305 868 ft 12 kts
2026-04-26 19:06 43.13925 -89.34302 869 ft 23 kts
2026-04-26 19:06 43.14077 -89.34318 872 ft 21 kts 342°
2026-04-26 19:06 43.14209 -89.34355 874 ft 18 kts 359°
2026-04-26 19:07 43.14354 -89.34350 872 ft 26 kts
2026-04-26 19:07 43.14547 -89.34339 870 ft 28 kts
2026-04-26 19:07 43.14733 -89.34306 859 ft 26 kts 12°
2026-04-26 19:07 43.14879 -89.34257 860 ft 17 kts 21°
2026-04-26 19:08 43.14887 -89.34124 866 ft 14 kts 139°
2026-04-26 19:08 43.14814 -89.34111 868 ft 5 kts 185°
2026-04-26 19:08 43.14812 -89.34111 868 ft 0 kts 184°
2026-04-26 19:08 43.14755 -89.34096 868 ft 22 kts 152°
2026-04-26 19:09 43.14439 -89.33697 867 ft 98 kts 136°
2026-04-26 19:09 43.13807 -89.32875 986 ft 142 kts 136°
2026-04-26 19:09 43.13096 -89.31986 1751 ft 137 kts 134°
2026-04-26 19:09 43.12377 -89.31138 2501 ft 137 kts 135°
2026-04-26 19:10 43.11602 -89.30256 2859 ft 155 kts 136°
2026-04-26 19:10 43.10734 -89.29224 3138 ft 177 kts 136°
2026-04-26 19:10 43.09750 -89.28013 3451 ft 203 kts 136°
2026-04-26 19:10 43.08645 -89.26626 3890 ft 228 kts 135°
2026-04-26 19:11 43.07722 -89.24809 4583 ft 240 kts 111°
2026-04-26 19:11 43.07569 -89.22501 5343 ft 254 kts 83°
2026-04-26 19:11 43.07915 -89.20111 6199 ft 258 kts 86°
2026-04-26 19:11 43.08064 -89.17644 7032 ft 262 kts 91°
2026-04-26 19:12 43.08120 -89.15107 7756 ft 270 kts 92°
2026-04-26 19:12 43.08162 -89.12541 8550 ft 275 kts 92°
2026-04-26 19:12 43.08220 -89.09896 9370 ft 281 kts 91°
2026-04-26 19:12 43.08300 -89.07196 10187 ft 286 kts 91°
2026-04-26 19:13 43.08401 -89.04444 10796 ft 299 kts 90°
2026-04-26 19:13 43.08522 -89.01487 11062 ft 322 kts 90°
2026-04-26 19:13 43.08662 -88.98322 11344 ft 343 kts 89°
2026-04-26 19:13 43.08814 -88.95024 11959 ft 351 kts 89°
2026-04-26 19:14 43.08973 -88.91665 12647 ft 357 kts 89°
2026-04-26 19:14 43.09132 -88.88258 13340 ft 362 kts 89°
2026-04-26 19:14 43.09292 -88.84798 13995 ft 367 kts 89°
2026-04-26 19:14 43.09346 -88.83614 14196 ft 369 kts 89°
2026-04-26 19:15 43.09614 -88.77745 15224 ft 376 kts 89°
2026-04-26 19:15 43.09775 -88.74151 15836 ft 380 kts 89°
2026-04-26 19:15 43.09933 -88.70529 16438 ft 384 kts 89°
2026-04-26 19:15 43.10091 -88.66852 17037 ft 388 kts 89°
2026-04-26 19:16 43.10248 -88.63189 17627 ft 393 kts 88°
2026-04-26 19:16 43.10407 -88.59431 18226 ft 397 kts 88°
2026-04-26 19:16 43.10566 -88.55641 18760 ft 401 kts 88°
2026-04-26 19:16 43.10729 -88.51812 19278 ft 405 kts 88°
2026-04-26 19:17 43.10893 -88.47940 19798 ft 409 kts 88°
2026-04-26 19:17 43.11054 -88.44038 20302 ft 413 kts 88°
2026-04-26 19:17 43.11214 -88.40093 20802 ft 417 kts 88°
2026-04-26 19:17 43.11375 -88.36108 21312 ft 421 kts 88°
2026-04-26 19:18 43.11483 -88.33445 21652 ft 424 kts 88°
2026-04-26 19:18 43.11650 -88.29400 22157 ft 428 kts 86°
2026-04-26 19:18 43.12072 -88.25353 22638 ft 432 kts 80°
2026-04-26 19:18 43.12597 -88.21283 23135 ft 435 kts 79°
2026-04-26 19:19 43.13126 -88.17194 23613 ft 439 kts 79°
2026-04-26 19:19 43.13659 -88.13066 24026 ft 442 kts 79°
2026-04-26 19:19 43.14190 -88.08909 24444 ft 445 kts 79°
2026-04-26 19:19 43.14718 -88.04724 24847 ft 447 kts 80°
2026-04-26 19:20 43.15245 -88.00520 25234 ft 449 kts 80°
2026-04-26 19:20 43.15593 -87.97727 25466 ft 451 kts 80°
2026-04-26 19:20 43.16300 -87.92023 25936 ft 455 kts 80°
2026-04-26 19:20 43.16836 -87.87740 26283 ft 458 kts 79°
2026-04-26 19:21 43.17376 -87.83440 26621 ft 460 kts 79°
2026-04-26 19:21 43.17815 -87.79076 26962 ft 463 kts 88°
2026-04-26 19:21 43.17481 -87.74688 27289 ft 464 kts 106°
2026-04-26 19:21 43.16280 -87.70667 27594 ft 462 kts 123°
2026-04-26 19:22 43.14287 -87.67253 27913 ft 458 kts 141°
2026-04-26 19:22 43.11831 -87.64482 28225 ft 458 kts 145°
2026-04-26 19:22 43.09310 -87.61793 28533 ft 461 kts 146°
2026-04-26 19:22 43.06772 -87.59094 28832 ft 463 kts 146°
2026-04-26 19:23 43.04221 -87.56381 29123 ft 466 kts 146°
2026-04-26 19:23 43.01658 -87.53653 29398 ft 468 kts 146°
2026-04-26 19:23 42.99077 -87.50905 29682 ft 471 kts 145°
2026-04-26 19:23 42.96488 -87.48153 29959 ft 473 kts 146°
2026-04-26 19:24 42.93913 -87.45419 30211 ft 475 kts 146°
2026-04-26 19:24 42.91299 -87.42641 30437 ft 477 kts 145°
2026-04-26 19:24 42.86520 -87.36307 30848 ft 488 kts 124°
2026-04-26 19:25 42.85055 -87.32120 31041 ft 493 kts 108°
2026-04-26 19:25 42.84553 -87.29109 31136 ft 494 kts 97°
2026-04-26 19:25 42.84757 -87.22905 31174 ft 490 kts 74°
2026-04-26 19:25 42.85746 -87.18473 31175 ft 489 kts 70°
2026-04-26 19:26 42.87841 -87.09650 31167 ft 489 kts 70°
2026-04-26 19:26 42.89916 -87.00811 31169 ft 489 kts 70°
2026-04-26 19:27 42.91943 -86.92077 31162 ft 471 kts 70°
2026-04-26 19:27 42.93907 -86.83630 31166 ft 465 kts 70°
2026-04-26 19:28 42.95842 -86.75277 31158 ft 464 kts 70°
2026-04-26 19:28 42.97645 -86.66818 31172 ft 466 kts 81°
2026-04-26 19:29 42.97677 -86.62399 31154 ft 468 kts 99°
2026-04-26 19:29 42.96796 -86.58143 31137 ft 466 kts 116°
2026-04-26 19:29 42.95083 -86.54427 31148 ft 462 kts 134°
2026-04-26 19:29 42.92746 -86.51467 31151 ft 458 kts 144°
2026-04-26 19:30 42.87850 -86.45870 31139 ft 461 kts 134°
2026-04-26 19:30 42.86012 -86.42279 31142 ft 465 kts 117°
2026-04-26 19:30 42.85212 -86.39567 31141 ft 466 kts 106°
2026-04-26 19:31 42.84754 -86.33731 31138 ft 465 kts 83°
2026-04-26 19:31 42.85422 -86.29463 31137 ft 461 kts 66°
2026-04-26 19:31 42.88418 -86.21805 31150 ft 458 kts 57°
2026-04-26 19:32 42.91606 -86.14286 31148 ft 458 kts 57°
2026-04-26 19:32 42.94763 -86.06810 31148 ft 457 kts 57°
2026-04-26 19:33 42.97934 -85.99263 31152 ft 458 kts 57°
2026-04-26 19:33 43.01100 -85.91693 30787 ft 459 kts 57°
2026-04-26 19:34 43.02680 -85.87904 30378 ft 459 kts 57°
2026-04-26 19:34 43.04264 -85.84106 29920 ft 459 kts 58°
2026-04-26 19:34 43.05851 -85.80295 29444 ft 460 kts 58°
2026-04-26 19:34 43.07418 -85.76526 28970 ft 461 kts 58°
2026-04-26 19:35 43.09001 -85.72714 28515 ft 459 kts 58°
2026-04-26 19:35 43.10557 -85.68955 28201 ft 450 kts 58°
2026-04-26 19:35 43.12095 -85.65243 27939 ft 447 kts 58°
2026-04-26 19:35 43.13624 -85.61553 27674 ft 445 kts 58°
2026-04-26 19:36 43.15148 -85.57877 27428 ft 443 kts 58°
2026-04-26 19:36 43.16156 -85.55443 27262 ft 443 kts 58°
2026-04-26 19:36 43.18182 -85.50537 26923 ft 441 kts 58°
2026-04-26 19:36 43.19687 -85.46884 26666 ft 439 kts 58°
2026-04-26 19:37 43.21178 -85.43259 26207 ft 435 kts 59°
2026-04-26 19:37 43.22654 -85.39657 25668 ft 432 kts 59°
2026-04-26 19:37 43.24120 -85.36076 25141 ft 429 kts 59°
2026-04-26 19:37 43.25576 -85.32516 24624 ft 427 kts 59°
2026-04-26 19:38 43.26961 -85.28927 24113 ft 425 kts 66°
2026-04-26 19:38 43.27820 -85.25059 23631 ft 424 kts 80°
2026-04-26 19:38 43.28016 -85.21053 23202 ft 419 kts 94°
2026-04-26 19:38 43.27556 -85.17118 23084 ft 416 kts 108°
2026-04-26 19:39 43.26508 -85.13445 22944 ft 413 kts 121°
2026-04-26 19:39 43.25026 -85.10094 22681 ft 410 kts 125°
2026-04-26 19:39 43.23497 -85.06808 22415 ft 408 kts 126°
2026-04-26 19:39 43.21963 -85.03547 22144 ft 406 kts 126°
2026-04-26 19:40 43.20428 -85.00297 21881 ft 405 kts 126°
2026-04-26 19:40 43.18925 -84.97112 21627 ft 403 kts 126°
2026-04-26 19:40 43.17407 -84.93893 21372 ft 401 kts 126°
2026-04-26 19:40 43.15897 -84.90688 21158 ft 399 kts 126°
2026-04-26 19:41 43.14396 -84.87495 21183 ft 399 kts 126°
2026-04-26 19:41 43.12882 -84.84302 21067 ft 399 kts 127°
2026-04-26 19:41 43.11332 -84.81154 20815 ft 397 kts 127°
2026-04-26 19:41 43.10296 -84.79095 20644 ft 395 kts 128°
2026-04-26 19:42 43.08205 -84.74983 20312 ft 393 kts 128°
2026-04-26 19:42 43.06643 -84.71921 20066 ft 391 kts 128°
2026-04-26 19:42 43.05092 -84.68870 19820 ft 389 kts 128°
2026-04-26 19:42 43.03556 -84.65843 19588 ft 388 kts 128°
2026-04-26 19:43 43.02022 -84.62809 19340 ft 387 kts 128°
2026-04-26 19:43 43.00495 -84.59789 19101 ft 386 kts 128°
2026-04-26 19:43 42.98996 -84.56816 18873 ft 384 kts 128°
2026-04-26 19:43 42.97462 -84.53777 18635 ft 382 kts 128°
2026-04-26 19:44 42.95973 -84.50833 18395 ft 381 kts 128°
2026-04-26 19:44 42.94470 -84.47866 18117 ft 379 kts 128°
2026-04-26 19:44 42.92985 -84.44901 17870 ft 378 kts 127°
2026-04-26 19:44 42.91519 -84.41936 17599 ft 376 kts 127°
2026-04-26 19:45 42.90066 -84.38974 17328 ft 374 kts 127°
2026-04-26 19:45 42.88622 -84.36030 17075 ft 372 kts 127°
2026-04-26 19:45 42.87184 -84.33112 16804 ft 370 kts 127°
2026-04-26 19:45 42.85744 -84.30207 16545 ft 368 kts 127°
2026-04-26 19:46 42.84312 -84.27325 16289 ft 367 kts 127°
2026-04-26 19:46 42.82884 -84.24457 16058 ft 365 kts 127°
2026-04-26 19:46 42.81459 -84.21593 15967 ft 364 kts 127°
2026-04-26 19:46 42.80035 -84.18733 15986 ft 365 kts 127°
2026-04-26 19:47 42.78627 -84.15913 15986 ft 365 kts 127°
2026-04-26 19:47 42.77662 -84.13982 15986 ft 365 kts 127°
2026-04-26 19:47 42.75772 -84.10197 15984 ft 365 kts 127°
2026-04-26 19:47 42.74347 -84.07340 15983 ft 365 kts 127°
2026-04-26 19:48 42.72922 -84.04483 15984 ft 365 kts 127°
2026-04-26 19:48 42.71496 -84.01628 15983 ft 365 kts 127°
2026-04-26 19:48 42.70069 -83.98774 15983 ft 365 kts 127°
2026-04-26 19:48 42.68598 -83.95974 15981 ft 363 kts 133°
2026-04-26 19:49 42.66879 -83.93450 15627 ft 363 kts 137°
2026-04-26 19:49 42.65136 -83.91010 15267 ft 359 kts 137°
2026-04-26 19:49 42.63391 -83.88589 14929 ft 357 kts 137°
2026-04-26 19:49 42.61656 -83.86190 14590 ft 355 kts 136°
2026-04-26 19:50 42.59931 -83.83806 14256 ft 353 kts 136°
2026-04-26 19:50 42.58220 -83.81439 13910 ft 351 kts 136°
2026-04-26 19:50 42.56516 -83.79082 13560 ft 349 kts 136°
2026-04-26 19:50 42.54822 -83.76734 13229 ft 347 kts 136°
2026-04-26 19:51 42.53139 -83.74387 12901 ft 346 kts 136°
2026-04-26 19:51 42.51509 -83.72066 12577 ft 344 kts 135°
2026-04-26 19:51 42.49873 -83.69706 12250 ft 342 kts 135°
2026-04-26 19:51 42.48252 -83.67352 11937 ft 341 kts 135°
2026-04-26 19:52 42.46639 -83.65007 11611 ft 339 kts 135°
2026-04-26 19:52 42.45037 -83.62690 11341 ft 332 kts 135°
2026-04-26 19:52 42.43481 -83.60455 11218 ft 320 kts 136°
2026-04-26 19:52 42.41979 -83.58304 11087 ft 309 kts 135°
2026-04-26 19:53 42.40518 -83.56216 10925 ft 302 kts 135°
2026-04-26 19:53 42.39084 -83.54171 10709 ft 293 kts 135°
2026-04-26 19:53 42.37704 -83.52203 10261 ft 285 kts 134°
2026-04-26 19:53 42.36346 -83.50267 9663 ft 283 kts 134°
2026-04-26 19:54 42.34992 -83.48341 9148 ft 281 kts 134°
2026-04-26 19:54 42.33525 -83.46596 8703 ft 282 kts 150°
2026-04-26 19:54 42.31711 -83.45665 8353 ft 276 kts 173°
2026-04-26 19:54 42.29819 -83.45706 8286 ft 272 kts 193°
2026-04-26 19:55 42.28107 -83.46584 8173 ft 257 kts 210°
2026-04-26 19:55 42.26571 -83.47712 8066 ft 246 kts 210°
2026-04-26 19:55 42.25073 -83.48790 7803 ft 242 kts 210°
2026-04-26 19:55 42.23588 -83.49852 7505 ft 241 kts 209°
2026-04-26 19:56 42.22106 -83.50928 7126 ft 243 kts 210°
2026-04-26 19:56 42.20644 -83.52000 6739 ft 240 kts 210°
2026-04-26 19:56 42.19190 -83.53073 6347 ft 237 kts 210°
2026-04-26 19:56 42.17757 -83.54153 5933 ft 235 kts 209°
2026-04-26 19:57 42.16349 -83.55258 5524 ft 233 kts 210°
2026-04-26 19:57 42.14968 -83.56385 5135 ft 231 kts 209°
2026-04-26 19:57 42.13610 -83.57520 4730 ft 229 kts 210°
2026-04-26 19:57 42.12269 -83.58651 4323 ft 226 kts 209°
2026-04-26 19:58 42.10946 -83.59783 3919 ft 224 kts 210°
2026-04-26 19:58 42.09703 -83.60870 4079 ft 206 kts 210°
2026-04-26 19:58 42.08496 -83.61890 4059 ft 202 kts 208°
2026-04-26 19:58 42.07219 -83.62486 4010 ft 191 kts 175°
2026-04-26 19:59 42.06028 -83.61921 4006 ft 181 kts 135°
2026-04-26 19:59 42.05288 -83.60591 4008 ft 177 kts 114°
2026-04-26 19:59 42.04827 -83.59059 4009 ft 176 kts 108°
2026-04-26 19:59 42.04427 -83.57504 4010 ft 176 kts 107°
2026-04-26 20:00 42.04039 -83.55939 4010 ft 176 kts 107°
2026-04-26 20:00 42.03659 -83.54388 4010 ft 176 kts 103°
2026-04-26 20:00 42.03561 -83.52760 4013 ft 175 kts 83°
2026-04-26 20:00 42.03909 -83.51200 4013 ft 176 kts 64°
2026-04-26 20:01 42.04665 -83.49912 4012 ft 178 kts 44°
2026-04-26 20:01 42.05729 -83.49017 3904 ft 182 kts 32°
2026-04-26 20:01 42.06840 -83.48210 3697 ft 181 kts 33°
2026-04-26 20:01 42.07945 -83.47405 3472 ft 180 kts 33°
2026-04-26 20:02 42.09036 -83.46607 3231 ft 178 kts 33°
2026-04-26 20:02 42.10110 -83.45822 2989 ft 170 kts 32°
2026-04-26 20:02 42.11108 -83.45091 2765 ft 156 kts 32°
2026-04-26 20:02 42.11415 -83.44867 2697 ft 152 kts 32°
2026-04-26 20:03 42.12892 -83.43783 2393 ft 142 kts 33°
2026-04-26 20:03 42.13754 -83.43149 2187 ft 141 kts 33°
2026-04-26 20:03 42.14618 -83.42515 1991 ft 141 kts 33°
2026-04-26 20:03 42.15477 -83.41884 1792 ft 141 kts 32°
2026-04-26 20:04 42.16331 -83.41257 1605 ft 141 kts 32°
2026-04-26 20:04 42.17195 -83.40623 1395 ft 142 kts 33°
2026-04-26 20:04 42.18068 -83.39981 1186 ft 143 kts 34°
2026-04-26 20:04 42.18945 -83.39336 994 ft 143 kts 31°
2026-04-26 20:05 42.19802 -83.38706 799 ft 141 kts 33°
2026-04-26 20:05 42.20660 -83.38079 656 ft 134 kts 34°
2026-04-26 20:05 42.21379 -83.37536 647 ft 95 kts 29°
2026-04-26 20:05 42.21701 -83.37296 644 ft 37 kts 33°
2026-04-26 20:06 42.21820 -83.37087 646 ft 24 kts 69°
2026-04-26 20:06 42.21860 -83.36960 648 ft 21 kts 53°
2026-04-26 20:06 42.21966 -83.36858 647 ft 17 kts 32°
2026-04-26 20:06 42.22000 -83.36666 648 ft 26 kts 122°
2026-04-26 20:07 42.21907 -83.36463 647 ft 23 kts 118°
2026-04-26 20:07 42.21832 -83.36274 647 ft 21 kts 118°
2026-04-26 20:07 42.21810 -83.36148 647 ft 21 kts 89°
2026-04-26 20:07 42.21818 -83.35873 645 ft 23 kts 85°
2026-04-26 20:08 42.21818 -83.35736 645 ft 18 kts 91°
2026-04-26 20:08 42.21819 -83.35563 645 ft 19 kts 89°
2026-04-26 20:08 42.21821 -83.35383 645 ft 17 kts 98°
2026-04-26 20:08 42.21736 -83.35326 644 ft 17 kts 170°
2026-04-26 20:09 42.21624 -83.35226 646 ft 20 kts 140°
2026-04-26 20:09 42.21495 -83.35211 646 ft 19 kts 182°
2026-04-26 20:09 42.21401 -83.35254 646 ft 8 kts 208°
2026-04-26 20:09 42.21397 -83.35299 646 ft 2 kts 289°
2026-04-26 20:10 42.21400 -83.35311 646 ft 2 kts 291°
2026-04-26 20:10 42.21402 -83.35317 646 ft 0 kts 294°